BAW84W EGKK-EDDH

Flight info

Callsign BAW84W
Flight time 1h 13m
Altitude 39000
Route FRANE M604 PAAVO Q295 SOMVA DCT MAVAS DCT TULIP Y12 SPY N873 ANDIK M105 RIBSO RIBSO3S
Aircraft A20N/M-SDE2E3FGHIRWXY/LB1

Departure

Time 2026-04-22 20:36
Airport London Gatwick Airport (EGKK)

Arrival

Time 2026-04-22 21:49
Airport Hamburg Helmut Schmidt Airport (EDDH)
Time Latitude Longitude Altitude Speed Heading
2026-04-22 20:01 51.15495 -0.16902 207 ft 0 kts 347°
2026-04-22 20:01 51.15498 -0.16903 207 ft 0 kts 348°
2026-04-22 20:16 51.15486 -0.16899 217 ft 4 kts 348°
2026-04-22 20:16 51.15463 -0.16892 219 ft 2 kts 348°
2026-04-22 20:16 51.15445 -0.16879 215 ft 4 kts 284°
2026-04-22 20:16 51.15446 -0.16842 216 ft 4 kts 257°
2026-04-22 20:17 51.15448 -0.16828 217 ft 1 kts 257°
2026-04-22 20:19 51.15447 -0.16839 216 ft 3 kts 257°
2026-04-22 20:19 51.15436 -0.16910 215 ft 9 kts 257°
2026-04-22 20:20 51.15421 -0.17016 207 ft 11 kts 257°
2026-04-22 20:20 51.15399 -0.17139 217 ft 12 kts 244°
2026-04-22 20:20 51.15368 -0.17278 213 ft 15 kts 254°
2026-04-22 20:20 51.15306 -0.17392 213 ft 8 kts 232°
2026-04-22 20:21 51.15292 -0.17473 209 ft 9 kts 256°
2026-04-22 20:21 51.15275 -0.17613 209 ft 16 kts 258°
2026-04-22 20:21 51.15245 -0.17832 207 ft 24 kts 258°
2026-04-22 20:21 51.15209 -0.18103 210 ft 26 kts 258°
2026-04-22 20:22 51.15176 -0.18394 209 ft 27 kts 258°
2026-04-22 20:22 51.15150 -0.18584 207 ft 0 kts 259°
2026-04-22 20:22 51.15150 -0.18586 207 ft 0 kts 259°
2026-04-22 20:23 51.15149 -0.18587 207 ft 0 kts 259°
2026-04-22 20:23 51.15147 -0.18602 207 ft 10 kts 257°
2026-04-22 20:23 51.15125 -0.18765 210 ft 17 kts 257°
2026-04-22 20:23 51.15098 -0.18952 212 ft 18 kts 257°
2026-04-22 20:24 51.15070 -0.19154 212 ft 20 kts 257°
2026-04-22 20:24 51.15040 -0.19374 215 ft 21 kts 257°
2026-04-22 20:24 51.15008 -0.19610 211 ft 23 kts 258°
2026-04-22 20:24 51.14973 -0.19865 211 ft 24 kts 258°
2026-04-22 20:25 51.14936 -0.20141 209 ft 25 kts 257°
2026-04-22 20:25 51.14900 -0.20388 211 ft 22 kts 257°
2026-04-22 20:25 51.14871 -0.20604 215 ft 21 kts 257°
2026-04-22 20:25 51.14841 -0.20818 218 ft 17 kts 258°
2026-04-22 20:26 51.14817 -0.21004 210 ft 17 kts 256°
2026-04-22 20:26 51.14794 -0.21138 216 ft 12 kts 252°
2026-04-22 20:26 51.14780 -0.21215 211 ft 1 kts 255°
2026-04-22 20:26 51.14771 -0.21267 207 ft 8 kts 256°
2026-04-22 20:27 51.14754 -0.21369 215 ft 10 kts 243°
2026-04-22 20:27 51.14733 -0.21396 212 ft 0 kts 192°
2026-04-22 20:31 51.14711 -0.21395 207 ft 10 kts 174°
2026-04-22 20:31 51.14656 -0.21344 210 ft 9 kts 144°
2026-04-22 20:31 51.14629 -0.21327 211 ft 0 kts 166°
2026-04-22 20:33 51.14629 -0.21326 211 ft 1 kts 166°
2026-04-22 20:33 51.14578 -0.21302 206 ft 13 kts 158°
2026-04-22 20:33 51.14521 -0.21185 209 ft 15 kts 91°
2026-04-22 20:34 51.14533 -0.21081 212 ft 0 kts 77°
2026-04-22 20:34 51.14533 -0.21080 212 ft 0 kts 77°
2026-04-22 20:35 51.14541 -0.21026 216 ft 29 kts 77°
2026-04-22 20:35 51.14670 -0.20110 212 ft 141 kts 77°
2026-04-22 20:35 51.14926 -0.18195 395 ft 203 kts 77°
2026-04-22 20:36 51.15251 -0.15761 920 ft 237 kts 77°
2026-04-22 20:36 51.15599 -0.13252 2395 ft 232 kts 80°
2026-04-22 20:36 51.15951 -0.10712 3644 ft 236 kts 81°
2026-04-22 20:36 51.16309 -0.08126 4470 ft 244 kts 81°
2026-04-22 20:37 51.16676 -0.05436 4878 ft 252 kts 81°
2026-04-22 20:37 51.16864 -0.02665 4968 ft 252 kts 90°
2026-04-22 20:37 51.16852 0.00128 5078 ft 252 kts 93°
2026-04-22 20:37 51.16799 0.02919 5099 ft 252 kts 94°
2026-04-22 20:38 51.16742 0.05705 5119 ft 252 kts 94°
2026-04-22 20:38 51.16687 0.08491 5137 ft 251 kts 94°
2026-04-22 20:38 51.16633 0.11274 5151 ft 251 kts 94°
2026-04-22 20:38 51.16582 0.14057 5170 ft 251 kts 93°
2026-04-22 20:39 51.16568 0.16841 5190 ft 251 kts 92°
2026-04-22 20:39 51.16568 0.19627 5207 ft 252 kts 92°
2026-04-22 20:39 51.16573 0.22383 5224 ft 252 kts 91°
2026-04-22 20:39 51.16577 0.25181 5243 ft 253 kts 92°
2026-04-22 20:40 51.16579 0.27982 5258 ft 252 kts 92°
2026-04-22 20:40 51.16585 0.30778 5261 ft 252 kts 91°
2026-04-22 20:40 51.16590 0.33612 5263 ft 252 kts 92°
2026-04-22 20:40 51.16592 0.36413 5474 ft 255 kts 92°
2026-04-22 20:41 51.16592 0.39296 6378 ft 266 kts 92°
2026-04-22 20:41 51.16593 0.42195 7857 ft 263 kts 92°
2026-04-22 20:41 51.16595 0.45101 9391 ft 262 kts 92°
2026-04-22 20:41 51.16595 0.48029 10737 ft 267 kts 92°
2026-04-22 20:42 51.16761 0.51014 11898 ft 276 kts 78°
2026-04-22 20:42 51.17641 0.53770 13120 ft 288 kts 52°
2026-04-22 20:42 51.19316 0.55601 14375 ft 302 kts 25°
2026-04-22 20:42 51.21361 0.56549 15498 ft 310 kts 17°
2026-04-22 20:43 51.23477 0.57295 16646 ft 313 kts 15°
2026-04-22 20:43 51.25618 0.58035 17785 ft 317 kts 15°
2026-04-22 20:43 51.27783 0.58802 18907 ft 321 kts 15°
2026-04-22 20:43 51.29965 0.59594 19943 ft 322 kts 15°
2026-04-22 20:44 51.32138 0.60392 21091 ft 320 kts 14°
2026-04-22 20:44 51.34306 0.61195 21979 ft 321 kts 14°
2026-04-22 20:44 51.36493 0.62011 22985 ft 325 kts 14°
2026-04-22 20:44 51.38699 0.62837 23962 ft 326 kts 14°
2026-04-22 20:45 51.40949 0.63684 24454 ft 340 kts 13°
2026-04-22 20:45 51.43313 0.64578 24738 ft 358 kts 13°
2026-04-22 20:45 51.45797 0.65519 24999 ft 375 kts 13°
2026-04-22 20:45 51.48383 0.66500 25373 ft 388 kts 13°
2026-04-22 20:46 51.53708 0.68524 26591 ft 397 kts 12°
2026-04-22 20:46 51.56406 0.69552 27233 ft 400 kts 12°
2026-04-22 20:46 51.59132 0.70589 27837 ft 404 kts 11°
2026-04-22 20:47 51.61880 0.71634 28446 ft 408 kts 11°
2026-04-22 20:47 51.64651 0.72689 29066 ft 411 kts 11°
2026-04-22 20:47 51.67439 0.73750 29665 ft 413 kts 10°
2026-04-22 20:47 51.70249 0.74822 30250 ft 416 kts 10°
2026-04-22 20:48 51.72118 0.75535 30597 ft 418 kts 10°
2026-04-22 20:48 51.74963 0.76623 31029 ft 422 kts 10°
2026-04-22 20:48 51.77819 0.77719 31620 ft 421 kts 10°
2026-04-22 20:48 51.80649 0.78900 32254 ft 422 kts 15°
2026-04-22 20:49 51.83240 0.81181 32863 ft 429 kts 32°
2026-04-22 20:49 51.85451 0.84467 33473 ft 435 kts 44°
2026-04-22 20:49 51.87235 0.88453 34056 ft 441 kts 54°
2026-04-22 20:49 51.88549 0.92968 34594 ft 446 kts 64°
2026-04-22 20:50 51.89717 0.97606 35094 ft 444 kts 63°
2026-04-22 20:50 51.90865 1.02247 35586 ft 443 kts 64°
2026-04-22 20:50 51.91990 1.06888 36043 ft 443 kts 64°
2026-04-22 20:50 51.93120 1.11525 36460 ft 443 kts 64°
2026-04-22 20:51 51.94264 1.16157 36861 ft 443 kts 64°
2026-04-22 20:51 51.95420 1.20784 37268 ft 443 kts 64°
2026-04-22 20:51 51.96583 1.25402 37671 ft 443 kts 64°
2026-04-22 20:51 51.97751 1.30020 38080 ft 442 kts 65°
2026-04-22 20:52 51.98917 1.34631 38483 ft 442 kts 65°
2026-04-22 20:52 52.00083 1.39246 38882 ft 442 kts 65°
2026-04-22 20:52 52.01245 1.43856 39236 ft 442 kts 65°
2026-04-22 20:52 52.02409 1.48485 39389 ft 444 kts 66°
2026-04-22 20:53 52.04719 1.57710 39410 ft 439 kts 65°
2026-04-22 20:53 52.07005 1.66882 39410 ft 437 kts 66°
2026-04-22 20:54 52.09281 1.76050 39411 ft 437 kts 65°
2026-04-22 20:54 52.11550 1.85231 39406 ft 437 kts 66°
2026-04-22 20:55 52.13812 1.94418 39407 ft 437 kts 66°
2026-04-22 20:55 52.16064 2.03606 39414 ft 436 kts 66°
2026-04-22 20:56 52.18302 2.12776 39417 ft 435 kts 66°
2026-04-22 20:56 52.20532 2.21947 39418 ft 435 kts 67°
2026-04-22 20:57 52.22755 2.31129 39419 ft 435 kts 66°
2026-04-22 20:57 52.24955 2.40254 39420 ft 435 kts 66°
2026-04-22 20:58 52.27177 2.49510 39430 ft 434 kts 67°
2026-04-22 20:58 52.29349 2.58596 39425 ft 431 kts 66°
2026-04-22 20:59 52.31318 2.67860 39422 ft 432 kts 71°
2026-04-22 20:59 52.33029 2.77288 39405 ft 434 kts 71°
2026-04-22 21:00 52.34689 2.86773 39432 ft 433 kts 72°
2026-04-22 21:00 52.35272 2.91554 39436 ft 424 kts 83°
2026-04-22 21:00 52.35558 2.96266 39433 ft 409 kts 80°
2026-04-22 21:01 52.36632 3.05199 39427 ft 397 kts 66°
2026-04-22 21:01 52.38741 3.13530 39418 ft 396 kts 64°
2026-04-22 21:02 52.40991 3.21774 39402 ft 397 kts 64°
2026-04-22 21:02 52.43162 3.30085 39409 ft 397 kts 65°
2026-04-22 21:03 52.45332 3.38407 39407 ft 397 kts 65°
2026-04-22 21:03 52.47502 3.46738 39405 ft 397 kts 65°
2026-04-22 21:04 52.49663 3.55065 39415 ft 397 kts 65°
2026-04-22 21:04 52.51776 3.63232 39415 ft 397 kts 65°
2026-04-22 21:05 52.53926 3.71572 39417 ft 397 kts 66°
2026-04-22 21:05 52.56071 3.79922 39421 ft 397 kts 66°
2026-04-22 21:06 52.58209 3.88277 39419 ft 397 kts 66°
2026-04-22 21:06 52.60343 3.96648 39429 ft 397 kts 66°
2026-04-22 21:07 52.62476 4.05042 39425 ft 398 kts 66°
2026-04-22 21:07 52.64604 4.13453 39423 ft 398 kts 66°
2026-04-22 21:08 52.66728 4.21883 39420 ft 398 kts 66°
2026-04-22 21:08 52.68848 4.30321 39421 ft 398 kts 67°
2026-04-22 21:09 52.70957 4.38753 39422 ft 397 kts 67°
2026-04-22 21:09 52.73056 4.47176 39420 ft 397 kts 67°
2026-04-22 21:10 52.75149 4.55605 39417 ft 397 kts 67°
2026-04-22 21:10 52.77236 4.64044 39423 ft 397 kts 67°
2026-04-22 21:11 52.79304 4.72439 39381 ft 397 kts 67°
2026-04-22 21:11 52.81381 4.80900 39378 ft 397 kts 67°
2026-04-22 21:12 52.83452 4.89368 39372 ft 397 kts 67°
2026-04-22 21:12 52.85517 4.97850 39384 ft 397 kts 67°
2026-04-22 21:13 52.87576 5.06335 39659 ft 398 kts 66°
2026-04-22 21:13 52.88612 5.10617 39471 ft 402 kts 66°
2026-04-22 21:13 52.89653 5.14929 39405 ft 404 kts 66°
2026-04-22 21:14 52.91734 5.23572 39408 ft 403 kts 66°
2026-04-22 21:14 52.93800 5.32192 39413 ft 402 kts 66°
2026-04-22 21:15 52.95859 5.40814 39417 ft 402 kts 67°
2026-04-22 21:15 52.97912 5.49444 39410 ft 402 kts 66°
2026-04-22 21:16 52.99959 5.58087 39409 ft 402 kts 66°
2026-04-22 21:16 53.02000 5.66736 39392 ft 403 kts 67°
2026-04-22 21:17 53.04038 5.75410 39386 ft 403 kts 67°
2026-04-22 21:17 53.06071 5.84093 39385 ft 403 kts 67°
2026-04-22 21:18 53.08096 5.92784 39385 ft 403 kts 67°
2026-04-22 21:18 53.10116 6.01481 39381 ft 403 kts 67°
2026-04-22 21:19 53.12126 6.10177 39391 ft 402 kts 68°
2026-04-22 21:19 53.14123 6.18850 39397 ft 400 kts 68°
2026-04-22 21:20 53.16107 6.27500 39403 ft 399 kts 68°
2026-04-22 21:20 53.18082 6.36150 39411 ft 399 kts 68°
2026-04-22 21:21 53.20052 6.44807 39414 ft 399 kts 68°
2026-04-22 21:21 53.22015 6.53475 39411 ft 399 kts 68°
2026-04-22 21:22 53.23972 6.62150 39412 ft 399 kts 68°
2026-04-22 21:22 53.25838 6.70823 39418 ft 400 kts 71°
2026-04-22 21:23 53.27497 6.79760 39406 ft 400 kts 71°
2026-04-22 21:23 53.29106 6.88598 39389 ft 400 kts 71°
2026-04-22 21:24 53.30732 6.97562 39384 ft 400 kts 71°
2026-04-22 21:24 53.32330 7.06413 39376 ft 400 kts 71°
2026-04-22 21:25 53.33933 7.15329 39374 ft 400 kts 71°
2026-04-22 21:25 53.35529 7.24253 39378 ft 400 kts 72°
2026-04-22 21:26 53.37112 7.33149 39362 ft 398 kts 72°
2026-04-22 21:26 53.38686 7.42036 39378 ft 398 kts 72°
2026-04-22 21:27 53.40252 7.50923 39378 ft 398 kts 72°
2026-04-22 21:27 53.41813 7.59824 39393 ft 398 kts 72°
2026-04-22 21:28 53.43367 7.68732 39379 ft 398 kts 72°
2026-04-22 21:28 53.44914 7.77645 39372 ft 398 kts 72°
2026-04-22 21:29 53.46456 7.86570 39372 ft 399 kts 72°
2026-04-22 21:29 53.48016 7.95634 39137 ft 417 kts 72°
2026-04-22 21:30 53.48834 8.00400 38859 ft 431 kts 72°
2026-04-22 21:30 53.49663 8.05261 38568 ft 433 kts 72°
2026-04-22 21:30 53.50489 8.10116 38278 ft 431 kts 72°
2026-04-22 21:30 53.51310 8.14957 38025 ft 430 kts 72°
2026-04-22 21:31 53.52127 8.19783 37749 ft 429 kts 72°
2026-04-22 21:31 53.52940 8.24602 37479 ft 428 kts 73°
2026-04-22 21:31 53.53746 8.29390 37148 ft 423 kts 73°
2026-04-22 21:31 53.54542 8.34133 36595 ft 421 kts 73°
2026-04-22 21:32 53.55334 8.38860 35966 ft 420 kts 73°
2026-04-22 21:32 53.56122 8.43579 35314 ft 418 kts 73°
2026-04-22 21:32 53.56905 8.48283 34660 ft 417 kts 73°
2026-04-22 21:32 53.57684 8.52971 33918 ft 415 kts 73°
2026-04-22 21:33 53.58197 8.56064 33421 ft 413 kts 73°
2026-04-22 21:33 53.58963 8.60696 32737 ft 409 kts 73°
2026-04-22 21:33 53.59721 8.65291 31970 ft 407 kts 74°
2026-04-22 21:33 53.60475 8.69876 31211 ft 404 kts 74°
2026-04-22 21:34 53.61219 8.74414 30519 ft 400 kts 75°
2026-04-22 21:34 53.61955 8.78914 29595 ft 398 kts 75°
2026-04-22 21:34 53.62689 8.83412 28489 ft 399 kts 75°
2026-04-22 21:34 53.63425 8.87937 27453 ft 400 kts 75°
2026-04-22 21:35 53.64156 8.92442 26581 ft 397 kts 75°
2026-04-22 21:35 53.64879 8.96909 25750 ft 393 kts 75°
2026-04-22 21:35 53.65592 9.01324 24959 ft 389 kts 75°
2026-04-22 21:35 53.66296 9.05700 24216 ft 383 kts 75°
2026-04-22 21:36 53.66989 9.10011 23383 ft 379 kts 75°
2026-04-22 21:36 53.67673 9.14286 22439 ft 376 kts 75°
2026-04-22 21:36 53.68352 9.18536 21496 ft 374 kts 75°
2026-04-22 21:36 53.69026 9.22764 20584 ft 372 kts 75°
2026-04-22 21:37 53.69909 9.28327 19422 ft 369 kts 75°
2026-04-22 21:37 53.70357 9.31148 18833 ft 368 kts 75°
2026-04-22 21:37 53.71015 9.35308 17896 ft 365 kts 75°
2026-04-22 21:37 53.71665 9.39427 17028 ft 361 kts 75°
2026-04-22 21:38 53.72305 9.43499 16212 ft 356 kts 75°
2026-04-22 21:38 53.72928 9.47465 15407 ft 352 kts 75°
2026-04-22 21:38 53.73559 9.51492 14578 ft 348 kts 75°
2026-04-22 21:38 53.74166 9.55377 13739 ft 345 kts 75°
2026-04-22 21:39 53.74774 9.59275 12863 ft 341 kts 75°
2026-04-22 21:39 53.75373 9.63131 12015 ft 338 kts 75°
2026-04-22 21:39 53.75966 9.66949 11194 ft 334 kts 75°
2026-04-22 21:39 53.76549 9.70720 10448 ft 329 kts 75°
2026-04-22 21:40 53.77114 9.74379 10092 ft 313 kts 75°
2026-04-22 21:40 53.77646 9.77836 9820 ft 295 kts 75°
2026-04-22 21:40 53.78148 9.81104 9588 ft 279 kts 75°
2026-04-22 21:40 53.78622 9.84197 9299 ft 266 kts 75°
2026-04-22 21:41 53.79082 9.87212 8660 ft 267 kts 75°
2026-04-22 21:41 53.79555 9.90314 7686 ft 279 kts 75°
2026-04-22 21:41 53.80049 9.93567 6607 ft 291 kts 75°
2026-04-22 21:41 53.80564 9.96949 5403 ft 302 kts 75°
2026-04-22 21:42 53.81107 10.00438 4201 ft 310 kts 75°
2026-04-22 21:42 53.81657 10.03931 3445 ft 302 kts 75°
2026-04-22 21:42 53.82185 10.07271 3093 ft 284 kts 75°
2026-04-22 21:42 53.82672 10.10355 3024 ft 259 kts 75°
2026-04-22 21:43 53.83112 10.13164 3020 ft 236 kts 75°
2026-04-22 21:43 53.83515 10.15729 3018 ft 216 kts 75°
2026-04-22 21:43 53.83893 10.18141 3019 ft 210 kts 75°
2026-04-22 21:43 53.84028 10.20580 3016 ft 211 kts 99°
2026-04-22 21:44 53.83340 10.22766 3018 ft 216 kts 131°
2026-04-22 21:44 53.82143 10.24346 3016 ft 220 kts 142°
2026-04-22 21:44 53.80825 10.25685 3011 ft 224 kts 154°
2026-04-22 21:44 53.79273 10.25982 3019 ft 231 kts 186°
2026-04-22 21:45 53.77741 10.25074 3013 ft 236 kts 202°
2026-04-22 21:45 53.76266 10.23850 3011 ft 236 kts 204°
2026-04-22 21:45 53.74834 10.22480 3011 ft 238 kts 214°
2026-04-22 21:45 53.73650 10.20516 3013 ft 240 kts 229°
2026-04-22 21:46 53.72620 10.18289 2940 ft 241 kts 230°
2026-04-22 21:46 53.71560 10.16100 2629 ft 239 kts 228°
2026-04-22 21:46 53.70502 10.13979 2272 ft 236 kts 228°
2026-04-22 21:46 53.69450 10.11841 1917 ft 237 kts 229°
2026-04-22 21:47 53.68400 10.09702 1579 ft 236 kts 229°
2026-04-22 21:47 53.67359 10.07588 1264 ft 231 kts 229°
2026-04-22 21:47 53.66385 10.05610 954 ft 211 kts 230°
2026-04-22 21:47 53.65499 10.03812 700 ft 189 kts 230°
2026-04-22 21:48 53.64717 10.02226 456 ft 165 kts 231°
2026-04-22 21:48 53.64028 10.00829 234 ft 147 kts 231°
2026-04-22 21:48 53.63393 9.99539 69 ft 140 kts 232°
2026-04-22 21:48 53.62827 9.98379 47 ft 107 kts 230°
2026-04-22 21:49 53.62445 9.97618 43 ft 73 kts 230°
2026-04-22 21:49 53.62233 9.97383 45 ft 5 kts 153°
2026-04-22 21:49 53.62232 9.97383 45 ft 0 kts 153°
2026-04-22 21:49 53.62229 9.97387 45 ft 6 kts 151°
2026-04-22 21:50 53.62187 9.97463 51 ft 11 kts 114°
2026-04-22 21:50 53.62194 9.97607 50 ft 13 kts 61°
2026-04-22 21:50 53.62258 9.97734 50 ft 16 kts 50°
2026-04-22 21:50 53.62339 9.97898 50 ft 20 kts 50°
2026-04-22 21:51 53.62403 9.98025 50 ft 10 kts 49°
2026-04-22 21:51 53.62463 9.98128 48 ft 15 kts 43°
2026-04-22 21:51 53.62549 9.98266 50 ft 19 kts 49°
2026-04-22 21:52 53.62751 9.98670 50 ft 26 kts 50°
2026-04-22 21:52 53.62864 9.98898 50 ft 22 kts 51°
2026-04-22 21:52 53.62944 9.99065 50 ft 20 kts 51°
2026-04-22 21:52 53.63042 9.99263 50 ft 18 kts 50°
2026-04-22 21:53 53.63122 9.99452 49 ft 22 kts 55°
2026-04-22 21:53 53.63210 9.99646 51 ft 16 kts 52°
2026-04-22 21:53 53.63205 9.99789 49 ft 7 kts 149°
2026-04-22 21:53 53.63092 9.99876 52 ft 20 kts 152°
2026-04-22 21:54 53.62979 9.99974 52 ft 16 kts 150°
2026-04-22 21:54 53.62977 10.00123 52 ft 16 kts 36°
2026-04-22 21:54 53.63049 10.00203 52 ft 10 kts 30°
2026-04-22 21:54 53.63071 10.00219 52 ft 1 kts 30°
2026-04-22 21:55 53.63078 10.00254 52 ft 8 kts 81°
2026-04-22 21:55 53.63076 10.00326 52 ft 5 kts 96°
2026-04-22 21:55 53.63075 10.00346 52 ft 1 kts 94°
2026-04-22 21:55 53.63074 10.00359 52 ft 1 kts 94°
2026-04-22 21:56 53.63074 10.00370 52 ft 1 kts 93°
2026-04-22 21:56 53.63074 10.00376 51 ft 1 kts 93°
2026-04-22 21:56 53.63074 10.00384 52 ft 0 kts 93°